SHIJIAN 30B

导读

SJ-30B(实践三十号B)是中国研制发射的卫星,于北京时间2025年11月19日12时01分,在酒泉卫星发射中心,由长征二号丙运载火箭发射升空,卫星顺利进入预定轨道,发射任务取得圆满成功。此次发射中,长征二号丙火箭同时将实践三十号A、B、C三颗卫星送入太空,该系列卫星主要用于空间环境探测及相关技术验证。

Basic Information
目录编号:
66546
目录名称:
SJ-30B
国际标识:
2025-266B
轨道中心:
EARTH
卫星名称:
SJ-30B
卫星全名:
SHIJIAN 30B
卫星状态:
在轨 (已飞行289 天)
发射日期:
2025-11-19 UTC
国别 :
中国 (CN)
星等 :
--
Orbit Information
数据来源 国际轨道数据 AOE轨道数据
星历时间 2026-09-04T15:16:04+0800
12小时前
查看轨道信息
2026-09-04T00:00:00+0800
1天前
查看轨道信息
半长轴 6897.684km 6897.689km
偏心率 0.0007031 0.0006279
轨道倾角 51.795° 51.794°
近地点辐角 150.412° 136.169°
升交点赤经 168.725° 171.705°
平近点角 209.725° 351.130°
近地点 514.697km 515.22km
远地点 524.397km 523.884km
周期 95.020分钟 95.020分钟
每日圈数 15.154717 15.154701
Detailed Information
使用方式:
暂无
2D Orbit Map
3D Orbit Map
Orbit Altitude Analysis Chart
Orbit Inclination Analysis Chart
Orbit Comprehensive Analysis Chart
View Comprehensive Chart
Conjunction Data List
Event ID Objects TCA Miss Dist (km) Collision Risk Probability Collision Risk Index (CRI) Action
CDM_260905-165204-282606-654622
NORSAT 1 (42826)
SJ-30B (66546)
2026-09-05T
16:52:37+0000
1.559 km
极远距离
5.228249E-6 低风险 0.49